Home > Weather > Kathua > Past weeks

Flag for India Past Weather in Kathua, Jammu and Kashmir, India — Yesterday and Last 2 Weeks

Now
77 °F

Fog.


Feels Like: 78 °F
Forecast: 79 / 95 °F
Wind: No wind

Location: Amritsar Airport

Current Time: Aug 28, 2016 at 6:08:43 AM

Latest Report: Aug 28, 2016 at 5:30 AM


Visibility: 1 mi

Pressure: 29.74 "Hg

Humidity: 100%

Dew Point: 77 °F

Location of KathuaLocation

Past Weather in Kathua — Graph

°F

Kathua Temperature Yesterday

Maximum temperature yesterday: 84 °F (at 12:00 AM)
Minimum temperature yesterday: 75 °F (at 11:00 AM)
Average temperature yesterday: 78 °F

High & Low Weather Summary for the Past Weeks

 TemperatureHumidityPressure
High95 °F (Aug 13, 3:00 PM)100% (Aug 13, 4:30 AM)29.86 "Hg (Aug 13, 4:30 AM)
Low73 °F (Aug 24, 4:30 PM)50% (Aug 19, 4:00 PM)29.42 "Hg (Aug 16, 6:00 PM)
Average84 °F91%29.61 "Hg
* Reported Aug 13 4:30 AM — Aug 28 5:00 AM, Kathua, Weather by CustomWeather, © 2016

Note: Actual official high and low records may vary slightly from our data, if they occured in-between our weather recording intervals... More about our weather records

Advertising

Kathua Weather History for the Previous 24 Hours

Scroll right to see more
 ConditionsComfort  
Time TempWeatherWind HumidityBarometerVisibility
5:00 AM
Sun, Aug 28
77 °FFog.No wind100%29.74 "Hg1 mi
4:00 AM77 °FFog.2 mph100%29.74 "Hg1 mi
3:30 AM77 °FFog.2 mph100%29.74 "Hg1 mi
3:00 AM77 °FFog.No wind100%29.74 "Hg1 mi
2:30 AM77 °FFog.2 mph100%29.77 "Hg1 mi
2:00 AM77 °FFog.6 mph100%29.74 "Hg1 mi
1:30 AM77 °FFog.No wind100%29.77 "Hg1 mi
1:00 AM77 °FFog.2 mph100%29.77 "Hg1 mi
12:30 AM77 °FFog.2 mph100%29.77 "Hg2 mi
12:00 AM77 °FFog.2 mph100%29.80 "Hg2 mi
11:30 PM
Sat, Aug 27
77 °FFog.3 mph100%29.80 "Hg2 mi
11:00 PM77 °FFog.3 mph100%29.80 "Hg2 mi
10:30 PM77 °FFog.2 mph100%29.80 "Hg2 mi
10:00 PM77 °FFog.2 mph100%29.77 "Hg2 mi
9:30 PM77 °FFog.5 mph100%29.77 "Hg2 mi
9:00 PM77 °FFog.7 mph100%29.77 "Hg2 mi
8:30 PM77 °FFog.8 mph100%29.77 "Hg2 mi
8:00 PM77 °FFog.6 mph100%29.80 "Hg2 mi
7:30 PM79 °FFog.7 mph100%29.77 "Hg2 mi
7:00 PM77 °FFog.5 mph100%29.77 "Hg2 mi
6:30 PM77 °FDrizzle. More clouds than sun.3 mph100%29.77 "Hg2 mi
6:00 PM79 °FRain. More clouds than sun.2 mph100%29.77 "Hg2 mi
5:30 PM77 °FThunderstorms. More clouds than sun.6 mph100%29.77 "Hg1 mi
5:00 PM77 °FThunderstorms. More clouds than sun.8 mph100%29.77 "Hg1 mi
4:30 PM77 °FThunderstorms. More clouds than sun.7 mph100%29.74 "Hg1 mi
4:00 PM77 °FThunderstorms. More clouds than sun.6 mph100%29.77 "Hg1 mi
3:30 PM77 °FThunderstorms. More clouds than sun.3 mph100%29.77 "Hg1 mi
3:00 PM75 °FThunderstorms. More clouds than sun.5 mph100%29.77 "Hg1 mi
2:30 PM75 °FThunderstorms. More clouds than sun.2 mph100%29.80 "Hg1 mi
2:00 PM75 °FThunderstorms. More clouds than sun.2 mph100%29.80 "Hg1 mi
1:30 PM75 °FThunderstorms. More clouds than sun.2 mph100%29.80 "Hg1 mi
1:00 PM75 °FThunderstorms. More clouds than sun.3 mph100%29.80 "Hg1 mi
12:30 PM77 °FThunderstorms. More clouds than sun.7 mph100%29.83 "Hg1 mi
12:00 PM77 °FThunderstorms. More clouds than sun.9 mph100%29.83 "Hg1 mi
11:30 AM77 °FThunderstorms. More clouds than sun.7 mph100%29.86 "Hg1 mi
11:00 AM75 °FThunderstorms. More clouds than sun.10 mph100%29.83 "Hg1 mi
10:30 AM77 °FThunderstorms. More clouds than sun.1 mph100%29.83 "Hg1 mi
10:00 AM77 °FThunderstorms. More clouds than sun.7 mph100%29.83 "Hg1 mi
9:30 AM77 °FThunderstorms. More clouds than sun.6 mph100%29.83 "Hg1 mi
9:00 AM79 °FThunderstorms. More clouds than sun.No wind100%29.83 "Hg1 mi
8:30 AM79 °FThunderstorms. More clouds than sun.No wind100%29.80 "Hg1 mi
8:00 AM79 °FThunderstorms. More clouds than sun.2 mph100%29.80 "Hg1 mi
7:00 AM81 °FThunderstorms. Broken clouds.5 mph100%29.77 "Hg1 mi
6:30 AM81 °FThunderstorms. Partly cloudy.3 mph100%29.77 "Hg1 mi
Weather by CustomWeather, © 2016

See weather overviewHow to use our weather pages